Location: Boncourt
(49.6160°N, 3.9448°E)
Time: 12:09:57
(UTC+00:00)

COSMO-SKYMED 1 - Pass Details

Date: 09 February 2023
Orbit: 621 x 623 km, 97.9° (Epoch: 22 March)

Event Time Altitude Azimuth Distance (km) Brightness Sun altitude
Rises 17:17:30 0° 21° (NNE) 2,918 5.6 -4.6°
Reaches altitude 10° 17:19:52 10° 30° (NNE) 2,006 4.8 -5.0°
Maximum altitude 17:23:51 34° 96° (E) 1,033 3.3 -5.6°
Drops below altitude 10° 17:27:48 10° 162° (SSE) 1,989 5.1 -6.2°
Sets 17:30:09 0° 172° (S) 2,890 6.1 -6.6°
